Simultaneous Nadir Overpasses (SNOs) Predictions

Prediction of SNOs between GOES-16 and METOP-C Satellite Orbit:

Table of predicted SNOs for the next 14.0 days since TLE Epoch: 10/16/2021
Index Date Time (GOES-16) GOES-16 Lat,Lon METOP-C Lat,Lon Distance(km) Time Diff (sec)
1 10/17/2021 02:36:37 -0.07, -75.19 -0.28, -76.05 98.66 80
2 10/18/2021 02:13:19 -0.07, -75.20 0.86, -71.07 471.17 80
3 10/19/2021 14:32:11 0.07, -75.23 0.16, -75.63 44.98 80
4 10/22/2021 02:30:34 -0.08, -75.24 -0.06, -75.23 2.85 80
5 10/24/2021 14:31:28 0.09, -75.29 -0.05, -74.80 57.16 80
6 10/26/2021 02:50:28 -0.09, -75.30 -1.02, -79.38 465.47 80
7 10/27/2021 02:27:10 -0.09, -75.32 0.11, -74.39 105.44 80
8 10/28/2021 14:46:02 0.10, -75.36 0.92, -78.95 409.90 80
9 10/29/2021 14:28:04 0.10, -75.38 -0.21, -73.96 161.37 80
